sat.trackr.live / text

‹ back to catalog

STARLINK-33877

NORAD 63933 · 2025-098H

PAYLOAD ACTIVE UNKNOWN

§ Identity

Operator
Country
US
Launch date
2025-05-13
Launch site
AFWTR
Launch vehicle
Mass (kg)
RCS (m²)

Purposes: comms

External: N2YO · Heavens-Above · Gunter

§ Orbital elements

Epoch: 2026-05-25T02:47:45.635424Z

Period
96.11 min
Inclination
70.0011°
Eccentricity
0.0002978
Mean motion
14.98343300 rev/d
Perigee alt
569.9 km
Apogee alt
574.1 km
Semi-major
6,950.2 km
B*
4.5743e-4
RAAN
81.6217°
Arg perigee
268.2944°
Mean anomaly
91.7874°
Rev number
5,802

§ Raw data

STARLINK-338771 63933U 25098H   26145.11650041  .00005371  00000+0  45743-3 0  99952 63933  70.0011  81.6217 0002978 268.2944  91.7874 14.98343300 58027

JSON: /api/v1/satellites/63933 · /tle

For live sub-satellite position, see the globe view (requires WebGL).

§ Visibility from observer

Set your observer location to see the next 7 days of passes ≥ 10°. The values pass through the URL so the page stays shareable.

No JS? Fill the form by hand. The geolocation button needs JavaScript.